When you browse on this site, cookies collect data to enhance your experience and personalize the content and advertising you see.
Visit our Privacy Policy to learn more. By continuing to use the site, you agree to this use of cookies and data.
  • In Hungary
  • List of Countries
  • For 7 days
  • Water Temperature
  • Weather Map
  • News
  • Weather Widgets
  • user-avatar
    Login

    Hourly Weather Bozhonka

    Today, 25 January, Saturday

    Time Temperature Precipitation Wind Pressure Humidity
    00:00 -3°C° 0 mm 4 mps 733 mmHg 90%
    01:00 -3°C° 0 mm 4 mps 732 mmHg 91%
    02:00 -3°C° 0 mm 4 mps 732 mmHg 92%
    03:00 -3°C° 0 mm 4 mps 732 mmHg 90%
    04:00 -4°C° 0 mm 5 mps 732 mmHg 88%
    05:00 -4°C° 0 mm 5 mps 732 mmHg 86%
    06:00 -4°C° 0 mm 5 mps 731 mmHg 87%
    07:00 -5°C° 0 mm 5 mps 731 mmHg 88%
    08:00 -4°C° 0 mm 4 mps 731 mmHg 89%
    09:00 -4°C° 0 mm 5 mps 731 mmHg 89%
    10:00 -4°C° 0 mm 5 mps 730 mmHg 88%
    11:00 -3°C° 0 mm 6 mps 730 mmHg 87%
    12:00 -3°C° 0.2 mm 6 mps 729 mmHg 82%
    13:00 -3°C° 0.2 mm 7 mps 729 mmHg 76%
    14:00 -3°C° 0.2 mm 7 mps 729 mmHg 70%
    15:00 -4°C° 0 mm 7 mps 729 mmHg 72%
    16:00 -4°C° 0 mm 7 mps 730 mmHg 74%
    17:00 -6°C° 0 mm 7 mps 730 mmHg 77%
    18:00 -6°C° 0 mm 7 mps 731 mmHg 79%
    19:00 -6°C° 0 mm 7 mps 731 mmHg 82%
    20:00 -6°C° 0 mm 6 mps 732 mmHg 85%
    21:00 -7°C° 0.1 mm 7 mps 733 mmHg 85%
    22:00 -7°C° 0.1 mm 7 mps 734 mmHg 85%
    23:00 -7°C° 0.1 mm 7 mps 735 mmHg 86%

    Tomorrow, 26 January, Sunday

    Time Temperature Precipitation Wind Pressure Humidity
    00:00 -7°C° 0 mm 7 mps 736 mmHg 86%
    01:00 -6°C° 0 mm 6 mps 737 mmHg 86%
    02:00 -6°C° 0 mm 6 mps 738 mmHg 87%
    03:00 -6°C° 0 mm 6 mps 738 mmHg 86%
    04:00 -6°C° 0 mm 6 mps 739 mmHg 85%
    05:00 -7°C° 0 mm 5 mps 740 mmHg 85%
    06:00 -7°C° 0 mm 5 mps 740 mmHg 85%
    07:00 -7°C° 0 mm 5 mps 741 mmHg 85%
    08:00 -7°C° 0 mm 5 mps 742 mmHg 84%
    09:00 -6°C° 0 mm 5 mps 742 mmHg 84%
    10:00 -5°C° 0 mm 4 mps 742 mmHg 84%
    11:00 -5°C° 0 mm 4 mps 742 mmHg 84%
    12:00 -5°C° 0 mm 4 mps 742 mmHg 84%
    13:00 -5°C° 0 mm 4 mps 742 mmHg 84%
    14:00 -4°C° 0 mm 4 mps 741 mmHg 83%
    15:00 -5°C° 0.4 mm 5 mps 740 mmHg 87%
    16:00 -5°C° 0.4 mm 5 mps 740 mmHg 91%
    17:00 -5°C° 0.4 mm 6 mps 739 mmHg 95%
    18:00 -4°C° 0.6 mm 6 mps 738 mmHg 95%
    19:00 -3°C° 0.6 mm 6 mps 737 mmHg 96%
    20:00 -2°C° 0.6 mm 6 mps 736 mmHg 97%
    21:00 -1°C° 0.4 mm 6 mps 736 mmHg 96%
    22:00 -1°C° 0.4 mm 7 mps 736 mmHg 96%
    23:00 0°C° 0.4 mm 7 mps 736 mmHg 96%

    Day after tomorrow, 27 January, Monday

    Time Temperature Precipitation Wind Pressure Humidity
    00:00 -1°C° 0.1 mm 7 mps 737 mmHg 95%
    01:00 -1°C° 0.1 mm 6 mps 737 mmHg 95%
    02:00 0°C° 0.1 mm 5 mps 738 mmHg 94%
    03:00 -2°C° 0.1 mm 5 mps 739 mmHg 93%
    04:00 -3°C° 0.1 mm 4 mps 740 mmHg 92%
    05:00 -4°C° 0.1 mm 3 mps 741 mmHg 90%
    06:00 -5°C° 0 mm 3 mps 741 mmHg 91%
    07:00 -6°C° 0 mm 3 mps 742 mmHg 92%
    08:00 -6°C° 0 mm 2 mps 743 mmHg 93%
    09:00 -5°C° 0 mm 2 mps 744 mmHg 90%
    10:00 -5°C° 0 mm 2 mps 744 mmHg 88%
    11:00 -5°C° 0 mm 2 mps 745 mmHg 85%
    12:00 -5°C° 0 mm 2 mps 745 mmHg 85%
    13:00 -5°C° 0 mm 2 mps 745 mmHg 84%
    14:00 -6°C° 0 mm 2 mps 746 mmHg 83%
    15:00 -6°C° 0 mm 2 mps 746 mmHg 84%
    16:00 -6°C° 0 mm 2 mps 746 mmHg 84%
    17:00 -7°C° 0 mm 3 mps 746 mmHg 85%
    18:00 -7°C° 0 mm 3 mps 746 mmHg 85%
    19:00 -7°C° 0 mm 3 mps 747 mmHg 85%
    20:00 -7°C° 0 mm 3 mps 747 mmHg 86%
    21:00 -8°C° 0 mm 3 mps 747 mmHg 87%
    22:00 -9°C° 0 mm 4 mps 746 mmHg 87%
    23:00 -9°C° 0 mm 4 mps 746 mmHg 88%

    28 January, Tuesday

    Time Temperature Precipitation Wind Pressure Humidity
    00:00 -9°C° 0.1 mm 4 mps 746 mmHg 90%
    01:00 -9°C° 0.1 mm 4 mps 746 mmHg 91%
    02:00 -9°C° 0.1 mm 4 mps 745 mmHg 93%
    03:00 -9°C° 0.3 mm 4 mps 745 mmHg 93%
    04:00 -9°C° 0.3 mm 4 mps 745 mmHg 93%
    05:00 -9°C° 0.3 mm 4 mps 745 mmHg 93%
    06:00 -9°C° 0.3 mm 4 mps 745 mmHg 93%
    07:00 -9°C° 0.3 mm 4 mps 744 mmHg 93%
    08:00 -8°C° 0.3 mm 4 mps 744 mmHg 93%
    09:00 -8°C° 0.2 mm 4 mps 744 mmHg 93%
    10:00 -8°C° 0.2 mm 4 mps 744 mmHg 93%
    11:00 -7°C° 0.2 mm 4 mps 744 mmHg 92%
    12:00 -6°C° 0.2 mm 3 mps 744 mmHg 93%
    13:00 -6°C° 0.2 mm 3 mps 744 mmHg 94%
    14:00 -5°C° 0.2 mm 3 mps 743 mmHg 94%
    15:00 -5°C° 0.2 mm 3 mps 743 mmHg 95%
    16:00 -5°C° 0.2 mm 3 mps 743 mmHg 96%
    17:00 -5°C° 0.2 mm 3 mps 743 mmHg 96%
    18:00 -3°C° 0.3 mm 2 mps 743 mmHg 96%
    19:00 -3°C° 0.3 mm 2 mps 743 mmHg 97%
    20:00 -3°C° 0.3 mm 2 mps 743 mmHg 97%
    21:00 -2°C° 0.2 mm 2 mps 743 mmHg 97%
    22:00 -2°C° 0.2 mm 3 mps 743 mmHg 97%
    23:00 -2°C° 0.2 mm 3 mps 743 mmHg 97%

    29 January, Wednesday

    Time Temperature Precipitation Wind Pressure Humidity
    00:00 -2°C° 0.1 mm 3 mps 743 mmHg 97%
    01:00 -2°C° 0.1 mm 3 mps 742 mmHg 97%
    02:00 -2°C° 0.1 mm 3 mps 742 mmHg 97%
    03:00 -2°C° 0.2 mm 3 mps 742 mmHg 97%
    04:00 -2°C° 0.2 mm 3 mps 742 mmHg 97%
    05:00 -1°C° 0.2 mm 3 mps 742 mmHg 98%
    06:00 -1°C° 0.3 mm 3 mps 742 mmHg 98%
    07:00 -1°C° 0.3 mm 3 mps 742 mmHg 98%
    08:00 0°C° 0.3 mm 3 mps 742 mmHg 98%
    09:00 0°C° 0.2 mm 3 mps 742 mmHg 98%
    10:00 0°C° 0.2 mm 3 mps 742 mmHg 98%
    11:00 0°C° 0.2 mm 3 mps 742 mmHg 98%
    12:00 0°C° 0 mm 3 mps 742 mmHg 98%
    13:00 0°C° 0 mm 3 mps 742 mmHg 98%
    14:00 0°C° 0 mm 3 mps 742 mmHg 98%
    15:00 0°C° 0 mm 3 mps 742 mmHg 98%
    16:00 -1°C° 0 mm 3 mps 742 mmHg 98%
    17:00 -1°C° 0 mm 3 mps 742 mmHg 97%
    18:00 -1°C° 0 mm 3 mps 742 mmHg 97%
    19:00 -1°C° 0 mm 3 mps 742 mmHg 96%
    20:00 -1°C° 0 mm 3 mps 742 mmHg 96%
    21:00 -1°C° 0.1 mm 3 mps 742 mmHg 96%
    22:00 -1°C° 0.1 mm 3 mps 741 mmHg 96%
    23:00 -1°C° 0.1 mm 3 mps 741 mmHg 97%

    30 January, Thursday

    Time Temperature Precipitation Wind Pressure Humidity
    00:00 -1°C° 0 mm 3 mps 741 mmHg 97%
    01:00 -1°C° 0 mm 3 mps 741 mmHg 97%
    02:00 -1°C° 0 mm 3 mps 741 mmHg 96%
    03:00 -2°C° 0 mm 4 mps 741 mmHg 96%
    04:00 -2°C° 0 mm 4 mps 740 mmHg 96%
    05:00 -2°C° 0 mm 4 mps 740 mmHg 96%
    06:00 -2°C° 0 mm 4 mps 740 mmHg 95%
    07:00 -2°C° 0 mm 4 mps 740 mmHg 94%
    08:00 -2°C° 0 mm 5 mps 739 mmHg 94%
    09:00 -2°C° 0 mm 5 mps 739 mmHg 93%
    10:00 -2°C° 0 mm 5 mps 739 mmHg 92%
    11:00 -2°C° 0 mm 4 mps 739 mmHg 91%
    12:00 -2°C° 0.1 mm 4 mps 739 mmHg 92%
    13:00 -4°C° 0.1 mm 5 mps 738 mmHg 93%
    14:00 -4°C° 0.1 mm 5 mps 738 mmHg 94%
    15:00 -4°C° 0.1 mm 5 mps 738 mmHg 94%
    16:00 -4°C° 0.1 mm 5 mps 737 mmHg 94%
    17:00 -5°C° 0.1 mm 5 mps 737 mmHg 94%
    18:00 -5°C° 0.2 mm 5 mps 737 mmHg 94%
    19:00 -5°C° 0.2 mm 5 mps 737 mmHg 95%
    20:00 -6°C° 0.2 mm 5 mps 736 mmHg 95%
    21:00 -6°C° 0.2 mm 5 mps 736 mmHg 94%
    22:00 -5°C° 0.2 mm 4 mps 736 mmHg 94%
    23:00 -5°C° 0.2 mm 4 mps 736 mmHg 94%
    Show more